KOREASAT 5A

Last updated on Tue Sep 22 2026 00:03:14 GMT+0000 (Coordinated Universal Time)

1 42984U 17067A 26264.58275777 .00000000 00000+0 00000+0 0 9994 2 42984 0.0207 142.1568 0000984 56.0993 125.1556 1.00269176 32493
UTC large
Height (km)
Speed (km/s)
/
Latitude / Longitude
Inclination (degrees)
Orbital Period (minutes)
Azimuth
Elevation
Range (km)
Doppler Factor

Next 0 passes for location: London (51.5072 / 0.1276)

No passes found over London.
KOREASAT 5A